Greenland, New Hampshire, United States (03840)
Lat: 43.04N, Lon: 70.83W
Wx Zone: NHZ014
Local Info
Past Weather Observations for Wednesday, July 29, 2015

NOTE: This archive is for the closest National Weather Service station to Greenland. Information may differ from the station used for current weather conditions.

Click here for Long-term Archive

Time Weather Temperature Dewpoint Humidity Pressure Winds Precip Visibility
23:58
Clear
77°F / 25°C 68°F / 20°C 74% 29.86 in
(1011 mb)
SSW 4.6 mph
(SSW 7 kph)
- 10SM
22:58
Clear
75°F / 24°C 70°F / 21°C 83% 29.86 in
(1011 mb)
SSW 5.8 mph
(SSW 9 kph)
- 10SM
21:58
Partly Cloudy
77°F / 25°C 70°F / 21°C 79% 29.86 in
(1011 mb)
SW 4.6 mph
(SW 7 kph)
- 10SM
20:58
Partly Cloudy
79°F / 26°C 70°F / 21°C 74% 29.86 in
(1011 mb)
Calm - 10SM
19:58
Partly Cloudy
79°F / 26°C 70°F / 21°C 74% 29.86 in
(1011 mb)
SW 3.5 mph
(SW 6 kph)
- 10SM
18:58
Partly Cloudy
81°F / 27°C 70°F / 21°C 70% 29.83 in
(1010 mb)
S 1.2 mph
(S 2 kph)
- 10SM
17:58
Partly Cloudy
84°F / 29°C 68°F / 20°C 58% 29.83 in
(1010 mb)
SE 4.6 mph
(SE 7 kph)
- 10SM
16:58
Mostly Cloudy
86°F / 30°C 68°F / 20°C 55% 29.83 in
(1010 mb)
SE 9.2 mph
(SE 15 kph)
- 10SM
15:58
Mostly Cloudy
90°F / 32°C 70°F / 21°C 52% 29.86 in
(1011 mb)
Variable 4.6 mph
(Variable 7 kph)
- 10SM
14:58
Mostly Cloudy
91°F / 33°C 64°F / 18°C 41% 29.86 in
(1011 mb)
SW 5.8 mph
(SW 9 kph)
- 10SM
13:58
Mostly Cloudy
91°F / 33°C 64°F / 18°C 41% 29.89 in
(1012 mb)
SSW 4.6 mph
(SSW 7 kph)
- 10SM
12:58
Mostly Cloudy
91°F / 33°C 68°F / 20°C 46% 29.89 in
(1012 mb)
SSE 8.1 mph
(SSE 13 kph)
- 10SM
11:58
Mostly Cloudy
90°F / 32°C 66°F / 19°C 46% 29.92 in
(1013 mb)
SW 5.8 mph
(SW 9 kph)
- 10SM
10:58
Mostly Cloudy
90°F / 32°C 66°F / 19°C 46% 29.92 in
(1013 mb)
SSW 4.6 mph
(SSW 7 kph)
- 10SM
09:58
Mostly Cloudy
88°F / 31°C 68°F / 20°C 52% 29.95 in
(1014 mb)
SW 4.6 mph
(SW 7 kph)
- 10SM
08:58
Mostly Cloudy
84°F / 29°C 66°F / 19°C 55% 29.95 in
(1014 mb)
W 4.6 mph
(W 7 kph)
- 10SM
07:58
Partly Cloudy
79°F / 26°C 68°F / 20°C 70% 29.95 in
(1014 mb)
SW 5.8 mph
(SW 9 kph)
- 10SM
06:58
Partly Cloudy
75°F / 24°C 66°F / 19°C 74% 29.95 in
(1014 mb)
Variable 1.2 mph
(Variable 2 kph)
- 10SM
05:58
Mostly Cloudy
70°F / 21°C 68°F / 20°C 94% 29.95 in
(1014 mb)
W 2.3 mph
(W 4 kph)
- 10SM
04:58
Partly Cloudy
66°F / 19°C 64°F / 18°C 94% 29.95 in
(1014 mb)
W 2.3 mph
(W 4 kph)
- 8SM
03:58
Clear
Fog
66°F / 19°C 64°F / 18°C 94% 29.92 in
(1013 mb)
SSW 2.3 mph
(SSW 4 kph)
- 8SM
02:58
Clear
66°F / 19°C 64°F / 18°C 94% 29.92 in
(1013 mb)
WNW 2.3 mph
(WNW 4 kph)
- 10SM
01:58
Clear
68°F / 20°C 66°F / 19°C 94% 29.92 in
(1013 mb)
Calm - 10SM
00:58
Partly Cloudy
68°F / 20°C 66°F / 19°C 94% 29.92 in
(1013 mb)
NW 3.5 mph
(NW 6 kph)
- 10SM
Time Weather Temperature Dewpoint Humidity Pressure Winds Precip Visibility


Weather for websites

WeatherForYou.com, LLC is not responsible for any damages or problems caused by this service. Current weather conditions are obtained from the closest station including government and personal stations which may have varying degrees of accuracy. Weather forecasts are derived from the NOAA NDFD. Like all things, this site belongs to Jesus Christ... He just trusts us to maintain it. If you have any questions or comments email webmaster@weatherforyou.com

Copyright © 2015, WeatherForYou.com LLC. All rights reserved.